#timestamp,LO_Frequency,Hit,StdDev 
1591938015.6,286046997.1,P
1591938035.5,286046996.7,P
1591938055.3,286046997.2,P
1591938075.1,286046997.4,Y
1591938095.9,286047002.4,P
1591938115.7,286046999.8,N
1591938135.6,286046999.9,N
1591938155.4,286047002.2,N
1591938175.2,286047001.8,N
1591938195.1,286047002.3,N
1591938196.0,286047002.3,N
1591938215.8,286047000.3,N
1591938235.6,286047001.3,N
1591938255.5,286047000.1,N
1591938275.3,286047002.8,N
1591938295.2,286047000.3,N
1591938315.9,286047001.3,N
1591938335.7,286047002.3,N
1591938355.6,286047000.6,N
1591938375.4,286047002.3,N
1591938395.3,286047002.1,N
1591938415.1,286046999.8,N
1591938416.0,286046999.8,N
1591938435.8,286047003.8,N
1591938455.7,286047003.8,N
1591938475.5,286047003.1,N
1591938495.3,286047001.5,N
1591938515.2,286047002.4,N
1591938535.0,286047000.6,N
1591938535.9,286047000.6,N
1591938555.8,286047000.2,N
1591938575.6,286047001.9,N
1591938595.4,286047001.7,N
1591938615.3,286047002.4,N
1591938635.1,286047001.8,N
1591938655.9,286047003.7,Y
1591938675.7,286047002.8,P
1591938695.5,286047002.6,P
1591938715.4,286047003.5,P
1591938735.2,286047003.1,Y
1591938755.1,286047001.5,P
1591938756.0,286047001.5,N
1591938775.8,286047001.9,P
1591938795.6,286046999.8,N
1591938815.5,286046999.8,N
1591938835.3,286047001.0,N
1591938855.2,286047000.9,N
1591938875.9,286047002.8,Y
1591938895.7,286047002.6,P
1591938915.6,286047001.3,N
1591938935.4,286047004.0,P
1591938955.2,286046999.7,N
1591938975.1,286047002.7,N
1591938976.0,286047002.7,N
1591938995.8,286046999.7,N
1591939015.7,286047001.7,N
1591939035.5,286047002.4,N
1591939055.3,286047000.2,N
1591939075.2,286047002.8,N
1591939095.0,286046998.1,N
1591939095.9,286046998.1,N
1591939115.8,286047000.8,N
1591939135.6,286047000.4,N
1591939155.4,286047001.1,N
1591939175.3,286047002.2,N
1591939195.1,286047000.1,N
1591939215.9,286046999.9,N
1591939235.7,286046998.8,N
1591939255.5,286047000.0,N
1591939275.4,286047002.3,N
1591939295.2,286047002.2,N
1591939315.0,286047002.5,N
1591939316.0,286047002.5,N
1591939335.8,286046999.7,N
1591939385.7,286047000.0,E
1591939395.6,286047000.8,N
1591939415.4,286047000.0,P
1591939435.3,286047000.9,N
1591939455.1,286047002.4,Y
1591939475.8,286046999.0,P
1591939495.7,286046998.4,N
1591939515.5,286046997.6,N
1591939535.4,286046998.2,N
1591939555.2,286047000.4,N
1591939575.0,286047000.8,N
1591939575.9,286047000.8,N
1591939595.8,286047002.2,N
1591939615.6,286047000.8,N
1591939635.5,286047001.1,N
1591939655.3,286047000.9,N
1591939675.2,286047001.2,N
1591939695.9,286047002.0,N
1591939715.7,286047000.6,N
1591939735.6,286046998.5,N
1591939755.4,286047000.5,N
1591939775.2,286046998.1,N
1591939795.1,286047000.9,N
1591939796.0,286047000.9,N
1591939815.8,286047000.9,N
1591939835.7,286046998.7,N
1591939855.5,286046998.1,N
1591939875.3,286047000.0,N
1591939895.2,286046999.9,N
1591939915.0,286047000.1,N
1591939915.9,286047000.1,N
1591939935.8,286047000.2,N
1591939955.6,286047000.1,N
1591939975.4,286047000.2,N
1591939995.3,286047002.7,N
1591940015.1,286047000.5,N
1591940035.8,286047000.8,N
1591940055.7,286047000.9,N
1591940075.5,286047003.9,Y
1591940095.4,286047001.3,P
1591940115.2,286047001.5,P
1591940135.0,286047001.4,N
1591940135.9,286047001.4,Y
1591940155.8,286047002.4,P
1591940175.6,286047002.8,P
1591940195.5,286047001.6,N
1591940215.3,286047004.3,Y
1591940235.1,286046999.8,P
1591940255.9,286047002.6,N
1591940275.7,286047000.0,N
1591940295.6,286046997.3,N
1591940315.4,286046996.7,N
1591940335.2,286046996.5,N
1591940355.1,286046998.6,N
1591940356.0,286046998.6,N
1591940375.8,286046999.6,N
1591940395.7,286046999.3,N
1591940415.5,286046998.8,N
1591940435.3,286046999.2,N
1591940455.2,286046998.9,N
1591940475.0,286046998.4,N
1591940475.9,286046998.4,N
1591940495.7,286047001.1,N
1591940515.6,286046999.4,N
1591940535.4,286046999.4,N
1591940555.3,286046997.1,N
1591940605.1,286047002.7,E
1591940615.0,286046999.5,N
1591940616.0,286046999.5,P
1591940635.8,286046993.9,P
1591940655.6,286046995.5,N
1591940675.5,286046995.6,N
1591940695.3,286046994.9,N
1591940715.1,286046993.9,N
1591940735.9,286046996.0,N
1591940755.7,286046992.1,Y
1591940775.6,286046995.4,P
1591940795.4,286046995.4,P
1591940815.2,286046995.3,P
1591940835.1,286046996.2,Y
1591940836.0,286046996.2,P
1591940855.8,286046999.9,N
1591940875.7,286047001.8,N
1591940895.5,286047002.7,N
1591940915.3,286047002.7,N
1591940935.2,286047001.6,N
1591940955.0,286047002.2,N
1591940955.9,286047002.2,N
1591940975.8,286047001.6,N
1591940995.6,286047003.6,N
1591941015.4,286047003.1,N
1591941035.3,286047002.1,N
1591941085.2,286047000.5,E
1591941095.1,286047000.0,N
1591941096.0,286047000.0,P
1591941115.8,286047002.5,P
1591941135.7,286047000.3,N
1591941155.5,286047002.3,N
1591941175.3,286047002.6,N
1591941195.2,286047002.0,N
1591941215.0,286047003.7,Y
1591941215.9,286047003.7,P
1591941235.7,286047002.5,N
1591941255.6,286047003.9,P
1591941275.4,286047002.0,N
1591941295.3,286047002.9,N
1591941315.1,286047004.2,Y
1591941335.8,286046998.3,P
1591941355.7,286046999.2,N
1591941375.5,286046994.9,N
1591941395.4,286046997.3,N
1591941415.2,286047001.0,N
1591941435.0,286047002.1,N
1591941435.9,286047002.1,N
1591941455.8,286047002.8,N
1591941475.6,286046998.1,N
1591941495.5,286047001.1,N
1591941515.3,286047000.3,N
1591941535.1,286047000.5,N
1591941555.9,286046998.2,N
1591941575.7,286047000.7,N
1591941595.5,286046998.9,N
